COSMOS 2251 DEB, 35840

Orbit data source: Space-Track

COSMOS 2251 DEB, 35840 is space debris in LEO originally from a launch on Wed, 16 Jun 1993 UTC launched from the Plesetsk Missile And Space Complex (PKMTR). The debris from Iridium 33, an American commercial communications satellite, has been tracked extensively since its accidental collision with the defunct Russian satellite Cosmos 2251 in 2009. This event, occurring at high speed in low Earth orbit (LEO), generated thousands of pieces of space debris, significantly increasing the risk of further collisions. The Iridium 33 debris cloud has impacted space traffic management and orbital debris mitigation strategies, making it a subject of ongoing study in space situational awareness.

Loading next visibility...
Identifier
35840, 1993-036ATN
Orbit
LEO
Country
Flag of CISCIS
Related business
Manufacturer
Unknown
Mission
Spacecraft
Bus & Motor
Unknown
Mass
Unknown
Launch date (UTC)
1993-06-16 (32 years ago)
Launch vehicle
Unknown
Launch site
Plesetsk Missile And Space Complex (PKMTR)
Object type
Payload
Rocket body
Debris
Shape & HBR
Unknown shape, 0.1 m
Radar Cross Section
Small (<0.1 m²)

Expand to show TLE details & history
Last TLE update: 14 hours ago

TLE from 14 hours ago
0 COSMOS 2251 DEB
1 35840U 93036ATN 25343.19350115  .00006875  00000-0  21180-2 0  9993
2 35840  73.9303 164.7511 0116323  68.1040 293.2433 14.37769402852405
Epoch: 2025-12-09T04:38Z
TLE epoch observation values (Epoch: 2025-12-09T04:38:38.499Z)
Latitude
-0°
Longitude
16.90899°
Altitude
736.507 km
Speed
7.504 km/s
True Right ascension
10h 59m 00s
True Declination
0° 00' 00"
Sunlit
Object was in daylight at epoch
Visualization orbit readout
Latitude
Unknown
Longitude
Unknown
Altitude
Unknown
Speed
Unknown
Apparent Right ascension
Unknown
Apparent Declination
Unknown
Sunlit
N/A
Visualization observer readout
Local Sidereal Time
16:35:39
Azimuth
Unknown
Elevation
Unknown
Doppler factor
Unknown
Orbital elements
Apogee altitude
846.582 km
Perigee altitude
680.435 km
Semi-major axis
7,141.645 km
Eccentricity
0.01163
Inclination
73.9303°
RAAN
164.7511°
Arg. of periapsis
68.104°
True anomaly
292.01155°
Mean anomaly
293.2433°
Eccentric anomaly
292.62812°
Mean motion
3.59622 °/min
Orbital period
100.11 mins
BSTAR
0.002118
Loading maneuver chart data...
Computing Atmospheric mass density...

Documentation

Showing up to 5 results
|